Tracking 33197 objects as of 18-Feb-2026
HD Live streaming from Space Station
objects crossing your sky now

SL-24 DEB

Track SL-24 DEB now!
10-day predictions


NORAD ID: 33318
Int'l Code: 2008-040G
Perigee: 497.7 km
Apogee: 516.1 km
Inclination: 98.0 °
Period: 94.6 minutes
Semi major axis: 6877 km
RCS: 5.1176 m2 (large)
Launch date: August 29, 2008
Source: Commonwealth of Independent States (former USSR) (CIS)
Launch site: TYURATAM MISSILE AND SPACE COMPLEX (TTMTR)

Note: This is SATELLITE DEBRIS
Your satellite tracking list
Your tracking list is empty




NASA's NSSDC Master Catalog

Two Line Element Set (TLE):
1 33318U 08040G   26048.78946240  .00012207  00000-0  53594-3 0  9991
2 33318  97.9817 342.3521 0013383 141.5102 218.7089 15.22022532951546
Source of the keplerian elements: AFSPC